Location: ??????
(38.5153°N, 23.0340°E)
Time: 13:48:04
(UTC+00:00)

IRIDIUM 114 - Pass Details

Date: 13 December 2025
Orbit: 776 x 779 km, 86.4° (Epoch: 17 January)

Event Time Altitude Azimuth Distance (km) Brightness Sun altitude
Rises 15:41:28 0° 357° (N) 3,268 7.3 -6.8°
Reaches altitude 10° 15:43:49 10° 358° (N) 2,336 6.6 -7.2°
Maximum altitude 15:49:04 88° 88° (E) 783 4.4 -8.1°
Drops below altitude 10° 15:54:16 10° 179° (S) 2,318 7.1 -9.1°
Sets 15:56:35 0° 179° (S) 3,241 7.8 -9.5°
